Regional Weather Roundup
Issued by NWS

Home | Current Version | Previous Version | Graphics & Text | Print | Product List | Glossary On
Versions: 1 2 3 4 5 6 7 8 9 10 11 12 13 14 15 16 17 18 19 20 21 22 23 24 25 26 27 28 29 30 31 32 33 34 35 36 37 38 39 40 41 42 43 44 45 46 47 48 49 50
000
ASUS45 KCYS 030710
RWRWY

WYOMING REGIONAL WEATHER ROUNDUP
NATIONAL WEATHER SERVICE CHEYENNE WY
100 AM MDT SUN MAY 03 2015

NOTE:  "FAIR" INDICATES FEW OR NO CLOUDS BELOW 12,000 FEET
WITH NO SIGNIFICANT WEATHER AND/OR OBSTRUCTIONS TO VISIBILITY.

WYZ001-030800-
YELLOWSTONE NATIONAL PARK

CITY           SKY/WX    TMP DP  RH WIND       PRES   REMARKS
LK YELLOWSTONE   N/A     42  24  49 CALM      30.01R
W YELLOWSTONE  NOT AVBL

$$
WYZ002>013-054>058-071-098>099-030800-
NORTHERN WYOMING

CITY           SKY/WX    TMP DP  RH WIND       PRES   REMARKS
JACKSON        MOCLDY    48  34  57 SW5       29.95R
CODY           CLOUDY    55  28  35 N7        29.91R
GREYBULL       FAIR      61  28  28 NW17      29.81R
WORLAND        FAIR      62  27  26 N6        29.81R
SHERIDAN       MOCLDY    57  34  41 W10       29.88R
BUFFALO        MOCLDY    57  30  35 NW21      29.89R
GILLETTE       FAIR      46  30  53 N3        29.82S
HULETT         FAIR      54  27  35 CALM      29.83R
NEWCASTLE      FAIR      55  30  38 E6        29.81S

$$
WYZ014>020-022>026-101>103-030800-
CENTRAL WYOMING

CITY           SKY/WX    TMP DP  RH WIND       PRES   REMARKS
BIG PINEY      FAIR      43  33  68 SW6       30.02R
PINEDALE       FAIR      39  32  75 CALM      30.03R
DUBOIS         FAIR      43  28  56 W7        29.96F
LANDER         FAIR      58  27  30 E7        29.88R
RIVERTON       FAIR      56  29  35 W10       29.88S
CASPER         FAIR      54  34  46 NW9       29.88R
DOUGLAS        FAIR      55  37  50 S7        29.86S

$$
WYZ021-027>030-104>119-030800-
SOUTHERN WYOMING

CITY           SKY/WX    TMP DP  RH WIND       PRES   REMARKS
EVANSTON       CLOUDY    51  32  48 E6        30.04S
KEMMERER       FAIR      48  32  53 S3        30.04F
FORT BRIDGER   CLOUDY    50  34  53 W9        30.06S
ROCK SPRINGS   FAIR      47  38  71 S7        30.01F
DIXON          FAIR      47  37  70 E12       30.06F
RAWLINS        FAIR      53  30  41 SW10      30.00S
SARATOGA       CLOUDY    52  32  46 SW13      30.04S
LARAMIE        CLOUDY    50  33  52 W14       30.02S
CHEYENNE       FAIR      56  34  43 W12       29.94S
TORRINGTON     FAIR      55  42  61 CALM      29.82R
PINE BLUFFS    FAIR      52  43  71 S12       29.92S

$$


USA.gov is the U.S. government's official web portal to all federal, state and local government web resources and services.